weather.gov     
National Weather Service

Miscellaneous Local Product
NWS Homepage
This page is being discontinued on March 12, 2014.
The same data is available at this site. Please update your bookmarks.
Thank you, and we apologize for the inconvenience.
Please send an email to SR-SRH.Webmaster@noaa.gov with any concerns.


Current Version
Previous Version:    01  02  03  04  05  06  07  08  09  10  11  12  13  14  15  16  17  18  19  20  21  22  23  24  25  26  27  28  29  30  
   31  32  33  34  35  36  37  38  39  40  41  42  43  44  45  46  47  48  49  50  51  52  53  54  55  56  57  58  59  60  
[Printable]
932
AXUS43 KLBF 282010
MISLBF


WESTERN AND NORTH CENTRAL NEBRASKA HOURLY WEATHER ROUNDUP
NATIONAL WEATHER SERVICE NORTH PLATTE NE
200 PM CST FRI NOV 28 2014

***STATIONS NOT REPORTING VARIABLES SUCH AS SKY/WEATHER OR
PRESSURE ARE PROVIDED BY THE NEBRASKA DEPARTMENT OF
ROADS...RAWS...AND APRS NETWORKS...AND ARE NOT UNDER
NATIONAL WEATHER SERVICE QUALITY CONTROL***

...OBSERVATIONS IN AND NEAR THE EASTERN PANHANDLE OF NEBRASKA...

CITY           SKY/WX    TMP DP  RH WIND       PRES   REMARKS
PINE RIDGE     SUNNY     63  29  27 W12G18    29.66F
CHADRON        SUNNY    N/A N/A N/A W23       29.67F
ALLIANCE       MOSUNNY   66  19  16 W24G30    29.72F
SIDNEY         CLOUDY    66  19  16 W17G25    29.80F
CRESCENT LAKE    N/A     65  18  16 W15G23      N/A
BIG SPRINGS      N/A     59  31  35 SW12        N/A
$$

...OBSERVATIONS IN NORTH CENTRAL NEBRASKA...

CITY           SKY/WX    TMP DP  RH WIND       PRES   REMARKS
VALENTINE      SUNNY     66  27  23 W18G24    29.64F
THEDFORD       MOSUNNY   69  25  19 NW18G28   29.68F
AINSWORTH      SUNNY     63  28  26 W15       29.64F
O`NEILL        SUNNY     67  29  24 W14       29.62S
ORD            SUNNY     72  22  15 W16G25    29.63F
BROKEN BOW     MOSUNNY   73  25  16 W21G28    29.67F
SPRINGVIEW       N/A     61  31  31 W9          N/A
SARGENT          N/A     70  23  17 W12G18      N/A
COMSTOCK         N/A     76  21  13 W10         N/A
CHAMBERS         N/A     66  27  23 W7          N/A
EWING            N/A     69  32  25 CALM        N/A
$$

...OBSERVATIONS IN SOUTHWEST NEBRASKA AND FAR NORTHEAST COLORADO...

CITY           SKY/WX    TMP DP  RH WIND       PRES   REMARKS
WRAY           FAIR      73  17  11 W9        29.81S
HOLYOKE        FAIR      70  21  16 W14       29.79F
IMPERIAL       MOSUNNY   74  15  10 W15       29.77F
OGALLALA       MOSUNNY   66  32  28 W14       29.74F
NORTH PLATTE   SUNNY     72  21  14 W20G28    29.70F
MCCOOK         MOSUNNY   73  22  14 W7        29.74F
LEXINGTON      PTSUNNY   76  21  12 NW15      29.69F
PAXTON           N/A     67  30  25 W7          N/A
BRADY            N/A     72  23  16 S8G20       N/A
GOTHENBURG       N/A     73  19  13 W12         N/A
CALLAWAY         N/A     72  26  18 W24         N/A
$$

...NORTH PLATTE AREA...

CITY           SKY/WX    TMP DP  RH WIND       PRES   REMARKS
AIRPORT        SUNNY     72  21  14 W20G28    29.70F
DOWNTOWN         N/A     72  22  15 W10G20      N/A
$$

...SOME WEATHER OBSERVATIONS FROM AROUND THE REGION...

CITY           SKY/WX    TMP DP  RH WIND       PRES   REMARKS
DENVER         CLOUDY    67  15  13 E8        29.85F
LARAMIE        PTSUNNY   53  11  18 W21G29    29.93F
CHEYENNE       PTSUNNY   58  10  15 W23G41    29.85F
SCOTTSBLUFF    CLOUDY    63  28  26 NW8       29.73F
RAPID CITY     MOSUNNY   63  34  33 SE9       29.59F
PIERRE         SUNNY     40  24  53 E5        29.62F
WINNER         FAIR      56  30  37 W9        29.63F
SIOUX FALLS    PTSUNNY   32  26  78 E10       29.68F WCI  24
OMAHA          MOSUNNY   48  30  49 S15       29.73F
GRAND ISLAND   MOSUNNY   68  27  21 W15       29.68F
KANSAS CITY    PTSUNNY   55  32  41 S14       29.82F
WICHITA        MOSUNNY   60  34  37 S22       29.84F
HAYS           SUNNY     72  28  20 S15       29.77F
LIBERAL        SUNNY     75  25  15 S10       29.85F
GOODLAND       SUNNY     79   7   6 W8        29.79F
$$




U.S. Dept. of Commerce
NOAA National Weather Service
1325 East West Highway
Silver Spring, MD 20910
E-mail: w-nws.webmaster@noaa.gov
Page last modified: May 16, 2007
NATIONAL WEATHER SERVICE: for Safety, for Work, for Fun - FOR LIFE